AKST,Max TemperatureF,Mean TemperatureF,Min TemperatureF,Max Dew PointF,MeanDew PointF,Min DewpointF,Max Humidity, Mean Humidity, Min Humidity, Max Sea Level PressureIn, Mean Sea Level PressureIn, Min Sea Level PressureIn, Max VisibilityMiles, Mean VisibilityMiles, Min VisibilityMiles, Max Wind SpeedMPH, Mean Wind SpeedMPH, Max Gust SpeedMPH,PrecipitationIn, CloudCover, Events, WindDirDegrees
2011-12-1,45,42,38,45,39,31,0,0,0,30.54,30.24,30.01,10,8,3,30,12,48,0.81,7,Rain,225
2011-12-2,45,41,36,41,38,33,0,0,0,30.58,30.53,30.50,10,10,9,9,3,13,0.03,7,Rain,202
2011-12-3,42,37,31,39,36,32,0,0,0,30.68,30.62,30.55,10,10,8,5,1,7,0.00,7,,50
2011-12-4,41,39,36,43,40,37,0,0,0,30.67,30.60,30.53,10,6,2,8,3,9,0.01,8,Rain,134
2011-12-5,46,44,41,46,42,28,0,0,0,30.53,30.30,30.14,10,5,1,17,9,24,0.54,7,Rain,162
2011-12-6,40,36,31,30,28,25,0,0,0,30.57,30.50,30.38,10,10,10,10,3,15,0.00,3,,327
2011-12-7,36,30,24,28,26,22,0,0,0,30.59,30.56,30.52,10,10,10,7,1,9,0.00,3,,25
2011-12-8,41,37,32,40,34,27,0,0,0,30.52,30.44,30.34,10,8,2,14,7,18,0.12,8,Rain,122
2011-12-9,43,41,39,41,39,36,0,0,0,30.33,30.07,29.84,10,6,2,17,10,26,0.95,8,Rain,157
2011-12-10,42,37,31,37,33,30,0,0,0,30.25,30.08,29.91,10,10,8,9,1,13,0.07,5,Rain,324
2011-12-11,37,34,30,34,32,28,0,0,0,30.35,30.26,30.19,10,10,7,16,4,21,0.01,7,Rain,121
2011-12-12,43,39,35,40,37,33,0,0,0,30.15,29.97,29.89,10,8,2,22,9,33,0.87,6,Rain-Snow,167
2011-12-13,40,37,34,36,33,29,0,0,0,30.08,29.93,29.83,10,10,10,10,2,15,0.00,5,,347
2011-12-14,36,33,30,31,27,22,0,0,0,30.10,30.03,29.98,10,10,10,7,1,12,0.00,4,,26
2011-12-15,39,32,24,35,30,23,0,0,0,30.14,30.10,30.04,10,6,1,20,9,29,0.15,7,Snow,118
2011-12-16,42,40,37,40,38,34,0,0,0,30.03,29.92,29.85,10,8,2,18,7,24,0.13,8,Rain,102
2011-12-17,42,38,34,39,35,28,0,0,0,30.21,29.97,29.87,10,8,2,7,1,10,T,5,Rain,324
2011-12-18,37,33,28,41,33,27,0,0,0,30.28,30.17,30.00,10,8,2,18,7,25,T,6,Rain,127
2011-12-19,47,44,40,46,42,38,0,0,0,29.96,29.67,29.58,10,7,2,24,15,37,0.99,8,Rain,170
2011-12-20,43,40,37,38,34,28,0,0,0,30.43,30.23,29.88,10,10,8,16,5,25,0.03,5,Rain,282
2011-12-21,41,35,29,41,35,28,0,0,0,30.44,30.28,30.02,10,9,2,23,8,31,0.02,7,Rain,134
2011-12-22,45,43,41,43,39,36,0,0,0,30.01,29.67,29.41,10,8,3,41,25,54,0.21,8,Rain,149
2011-12-23,45,42,38,41,37,30,0,0,0,30.04,29.91,29.62,10,8,3,30,10,46,0.52,7,Rain,185
2011-12-24,46,43,40,45,41,38,0,0,0,30.03,29.78,29.65,10,7,2,26,10,43,0.44,7,Rain,138
2011-12-25,44,42,39,40,35,27,0,0,0,29.90,29.68,29.50,10,9,4,18,9,25,0.43,7,Rain,180
2011-12-26,42,39,36,41,34,23,0,0,0,29.82,29.44,29.21,10,8,3,43,20,67,0.80,8,Rain-Snow,166
2011-12-27,37,33,28,34,31,27,0,0,0,29.80,29.55,28.96,10,7,1,17,8,24,0.20,7,Rain-Snow,132
2011-12-28,45,40,34,43,38,30,0,0,0,29.47,29.06,28.91,10,9,6,26,14,39,0.31,7,Rain,169
2011-12-29,37,33,29,31,28,26,0,0,0,29.73,29.55,29.24,10,8,0,13,5,20,0.04,6,Fog-Snow,31
2011-12-30,37,35,32,29,25,20,0,0,0,30.07,29.68,29.23,10,8,1,20,7,28,T,6,Snow,306
2011-12-31,37,32,27,31,27,16,0,0,0,30.20,30.07,29.90,10,6,1,22,9,33,0.14,7,Snow,123